[[{"header":{"parameterUnit":"m.s-1","parameterCategory":2,"la1":30.2991,"la2":30.254,"lo1":-89.0895,"lo2":-89.0444,"dy":0.0017,"dx":0.0017,"nx":28,"ny":28,"refTime":"2023-04-30T15:00:00:Z","depth":"0","parameterNumber":2,"parameterNumberName":"U-component_of_CURRENTS"},"data":[0,0,0,0,0,0,0,0,0,0,0,0,0,0,0,0,0,0,0,0,0,0,0,0,0,0,0,0,0,0,0,0,0,0,0,0,0,0,0,0,0,0,0,0,0,0,0,0,0,0,0,0,0,0,0,0,0,0,0.2726,0.2728,0,0.2854,0.2854,0.2854,0.2967,0.297,0.2972,0.2975,0.2983,0.2981,0.2979,0,0,0,0,0,0,0,0,0,0,0,0,0,0.242,0.2424,0.2725,0.2728,0.2731,0.2854,0.2854,0.2854,0.2966,0.297,0.2973,0.2976,0.2984,0.2981,0.2979,0,0,0,0,0,0,0,0,0,0,0,0,0,0.2537,0.2426,0.2725,0.2813,0.2823,0.2854,0.2854,0.2855,0.2966,0.297,0.2974,0.2977,0.2985,0.2982,0.2978,0.2878,0,0,0.2968,0.2966,0,0,0,0,0,0,0,0,0.253,0.2546,0.2797,0.2807,0.2819,0.2912,0.2751,0.2862,0.2965,0.2896,0.2975,0.2979,0.2955,0.2954,0.295,0.2878,0.2879,0.2968,0.2966,0.2964,0.2963,0,0,0,0,0,0,0,0.2522,0.254,0.2761,0.28,0.2813,0.2793,0.2814,0.2771,0.2887,0.2902,0.2914,0.2951,0.2958,0.2953,0.2951,0.2879,0.2968,0.2965,0.2963,0.2961,0.287,0.2869,0,0,0,0,0,0,0.2541,0.2534,0.2757,0.2767,0.2698,0.2797,0.282,0.2865,0.2891,0.2904,0.2948,0.2956,0.2957,0.2955,0.2952,0.2882,0.2964,0.2961,0.2959,0.287,0.287,0.2869,0,0,0,0,0,0,0.2534,0.2559,0.2752,0.2664,0.2689,0.2801,0.285,0.2866,0.2891,0.293,0.2938,0.2962,0.296,0.2956,0.2919,0.2882,0.296,0.2956,0.2871,0.287,0.287,0.2712,0,0,0,0,0,0,0.2524,0.2556,0.2542,0.2666,0.2696,0.2755,0.2848,0.2866,0.2914,0.2926,0.2943,0.2947,0.2963,0.2924,0.2915,0.2879,0.2954,0.2871,0.287,0.287,0.2718,0.2706,0.2696,0,0,0,0,0,0.2513,0.2482,0.2541,0.2567,0.2692,0.2755,0.2763,0.2846,0.291,0.2887,0.2915,0.2948,0.2916,0.2918,0.2909,0.2871,0.2872,0.2871,0.287,0.2723,0.2709,0.2697,0,0,0,0,0,0,0.2333,0.2496,0.2563,0.2583,0.2664,0.278,0.275,0.2841,0.2845,0.2844,0.2904,0.2906,0.2878,0.2893,0.2896,0.2854,0.2913,0.291,0.2805,0.2791,0.2781,0.273,0.2951,0,0,0,0,0,0.2294,0.2316,0.2475,0.248,0.2514,0.2635,0.266,0.2732,0.2784,0.2794,0.2823,0.2848,0.2858,0.2841,0.2847,0.2777,0.2768,0.2766,0.2755,0.2745,0.2704,0.2692,0.2674,0.2866,0.2866,0.2866,0,0,0.2244,0.2317,0.2341,0.2442,0.2498,0.2527,0.2653,0.2683,0.2706,0.2782,0.2764,0.2801,0.2839,0.2792,0.2781,0.2797,0.2678,0.2744,0.2734,0.2698,0.2689,0.267,0.2652,0.2866,0.2866,0.2866,0,0,0.2127,0.2201,0.2181,0.2237,0.2325,0.2406,0.2427,0.2542,0.258,0.2575,0.2661,0.2658,0.2665,0.2676,0.269,0.2612,0.2636,0.2652,0.252,0.2509,0.2492,0.2477,0.239,0.2369,0.2627,0.2627,0.2627,0,0.2045,0.2075,0.2175,0.2163,0.2205,0.2361,0.236,0.2404,0.2494,0.2502,0.2548,0.2577,0.2601,0.2567,0.2551,0.2578,0.2565,0.2557,0.2489,0.2474,0.2461,0.2377,0.2355,0.2619,0.262,0.2621,0.2622,0,0.1944,0.1958,0.1937,0.2001,0.2035,0.2052,0.2173,0.2195,0.2275,0.2335,0.2328,0.2357,0.2378,0.2401,0.2439,0.2377,0.2392,0.2487,0.2505,0.2431,0.2348,0.2328,0.2608,0.2611,0.2613,0.2615,0,0,0.1809,0.1865,0.1856,0.1865,0.1963,0.1987,0.2004,0.2071,0.2082,0.2124,0.2115,0.2123,0.2162,0.218,0.2241,0.2212,0.2092,0.229,0.2293,0.2171,0.2008,0.2052,0.2035,0.2189,0.2186,0.2183,0.1966,0,0.171,0.1662,0.1724,0.1695,0.1706,0.1826,0.1831,0.1891,0.1958,0.1967,0.2005,0.2016,0.2079,0.2087,0.2058,0.2114,0.2041,0.2137,0.2126,0.2122,0.2147,0.2015,0.2177,0.2002,0.1946,0.1943,0.1941,0,0.1605,0.1597,0.1555,0.1583,0.1592,0.1587,0.1642,0.1666,0.1723,0.1768,0.1777,0.1846,0.1799,0.1895,0.1837,0.1904,0.1913,0.1938,0.1934,0.2013,0.2132,0.2084,0.1968,0.2035,0.191,0.1913,0.1915,0,0.1493,0.1476,0.1441,0.1455,0.1509,0.1492,0.1519,0.1584,0.1614,0.1645,0.1668,0.1647,0.1661,0.1653,0.1708,0.177,0.1652,0.1759,0.1775,0.1776,0.1925,0.1946,0.185,0.1681,0.1682,0.1683,0.1683,0,0.1401,0.1367,0.1374,0.1366,0.1318,0.137,0.1342,0.1394,0.1439,0.1478,0.1542,0.1583,0.1617,0.1601,0.1619,0.1606,0.1571,0.1685,0.1718,0.1873,0.1891,0.1973,0.1946,0.1674,0.1676,0.1678,0.1679,0,0.1316,0.1324,0.1284,0.1284,0.1277,0.124,0.1272,0.1281,0.1322,0.1378,0.1393,0.1491,0.1517,0.1512,0.1507,0.1511,0.147,0.1503,0.1637,0.169,0.1794,0.1752,0.1361,0.1344,0.1447,0.1446,0.1446,0,0.1278,0.1245,0.1219,0.1211,0.1211,0.1177,0.1195,0.1233,0.1284,0.1368,0.141,0.1443,0.1561,0.1495,0.1539,0.1494,0.1461,0.1552,0.1708,0.1751,0.1728,0.1509,0.1509,0.1808,0.181,0.1813,0.1815,0,0.1221,0.1203,0.1189,0.1172,0.1163,0.1165,0.1187,0.1206,0.1297,0.1357,0.148,0.1558,0.1615,0.172,0.1655,0.1658,0.1529,0.1598,0.1639,0.1956,0.1711,0.1736,0.1936,0.1835,0.1833,0.1831,0.183,0.1829,0.1184,0.1163,0.1156,0.1143,0.1147,0.1181,0.1188,0.1265,0.1339,0.1474,0.1544,0.1703,0.1875,0.1896,0.1834,0.189,0.1684,0.1945,0.1862,0.1609,0.1671,0.1857,0.1825,0.1824,0.1822,0.182,0.1819,0,0.1163,0.1159,0.1144,0.1145,0.1165,0.117,0.1226,0.1264,0.138,0.1551,0.1677,0.1944,0.2096,0.2156,0.2243,0.2197,0.2045,0.2142,0.1953,0.193,0.2159,0.2277,0.2351,0.2351,0.2351,0.2351,0.2351,0.2351,0.1158,0.1151,0.1153,0.1178,0.1185,0.1214,0.1247,0.1324,0.144,0.1664,0.1851,0.1978,0.2178,0.2315,0.2384,0.2345,0.218,0.206,0.1908,0.2256,0.2234,0.2214,0.2326,0.2409,0.2409,0.1746,0.1741,0.1738]},{"header":{"parameterUnit":"m.s-1","parameterCategory":2,"la1":30.2991,"la2":30.254,"lo1":-89.0895,"lo2":-89.0444,"dy":0.0017,"dx":0.0017,"nx":28,"ny":28,"refTime":"2023-04-30T15:00:00:Z","depth":"0","parameterNumber":3,"parameterNumberName":"V-component_of_CURRENTS"},"data":[0,0,0,0,0,0,0,0,0,0,0,0,0,0,0,0,0,0,0,0,0,0,0,0,0,0,0,0,0,0,0,0,0,0,0,0,0,0,0,0,0,0,0,0,0,0,0,0,0,0,0,0,0,0,0,0,0,0,-0.0022,-0.0022,0,-0.001,-0.001,-0.001,-0.0073,-0.0075,-0.0077,-0.0079,-0.0121,-0.012,-0.012,0,0,0,0,0,0,0,0,0,0,0,0,0,-0.0079,-0.0077,-0.0022,-0.0022,-0.0022,-0.001,-0.001,-0.001,-0.0073,-0.0076,-0.0078,-0.008,-0.0121,-0.0121,-0.012,0,0,0,0,0,0,0,0,0,0,0,0,0,-0.0058,-0.0077,-0.0022,-0.0053,-0.0056,-0.0011,-0.001,-0.001,-0.0073,-0.0076,-0.0078,-0.0081,-0.0122,-0.0121,-0.012,-0.0054,0,0,-0.0116,-0.0116,0,0,0,0,0,0,0,0,-0.0059,-0.0056,-0.0049,-0.0051,-0.0054,-0.0048,-0.0046,-0.0028,-0.0072,-0.0065,-0.0079,-0.0083,-0.01,-0.0101,-0.009,-0.0056,-0.0058,-0.0116,-0.0116,-0.0115,-0.0115,0,0,0,0,0,0,0,-0.006,-0.0056,-0.0016,-0.0048,-0.0052,-0.0061,-0.0061,-0.0042,-0.0066,-0.0066,-0.0071,-0.0071,-0.0102,-0.009,-0.0091,-0.0059,-0.0116,-0.0115,-0.0115,-0.0114,-0.0021,-0.0019,0,0,0,0,0,0,-0.0062,-0.0057,-0.0017,-0.0016,-0.0065,-0.0058,-0.0058,-0.0046,-0.0065,-0.0071,-0.0068,-0.0074,-0.0091,-0.0092,-0.0093,-0.0047,-0.0115,-0.0114,-0.0114,-0.0023,-0.0021,-0.0019,0,0,0,0,0,0,-0.0063,-0.0058,-0.0017,-0.0039,-0.0035,-0.0054,-0.0039,-0.0044,-0.0037,-0.0067,-0.0074,-0.0058,-0.0093,-0.0095,-0.0073,-0.0049,-0.0114,-0.0113,-0.0025,-0.0022,-0.002,0.0064,0,0,0,0,0,0,-0.0064,-0.0058,-0.0036,-0.0038,-0.0033,0.003,-0.0037,-0.0042,-0.0033,-0.004,-0.0059,-0.0066,-0.0096,-0.0074,-0.0072,-0.0049,-0.0112,-0.0027,-0.0024,-0.002,0.0059,0.0069,0.0078,0,0,0,0,0,-0.0066,-0.0016,-0.0034,-0.0029,-0.0006,0.0033,0.0037,0.0012,-0.0029,0.0002,-0.0028,-0.0066,-0.0052,-0.0071,-0.0069,-0.0045,-0.0029,-0.0025,-0.0021,0.0054,0.0067,0.0077,0,0,0,0,0,0,-0.002,-0.0018,-0.0038,0.0011,0.0025,0.0022,0.0054,0.0026,0.0031,0.0023,-0.003,-0.0036,-0.0012,-0.0028,-0.0049,-0.0008,-0.005,-0.0045,0.0006,0.0018,0.0027,0.001,-0.0111,0,0,0,0,0,-0.0001,0.0027,0.003,0.0069,0.0084,0.0068,0.0082,0.007,0.0066,0.0064,0.0038,0.0018,0.0013,0.0013,0.0014,0.0052,0.002,0.0066,0.0076,0.0084,0.0072,0.0047,0.0053,-0.0005,-0.0005,-0.0005,0,0,0.0016,0.0031,0.0039,0.0079,0.0087,0.012,0.0071,0.0113,0.0124,0.0063,0.0078,0.0059,0.0032,0.0061,0.007,0.0046,0.0092,0.0089,0.0096,0.0079,0.0052,0.0057,0.0062,-0.0002,-0.0003,-0.0003,0,0,0.007,0.0093,0.0126,0.0152,0.0182,0.0184,0.0196,0.0203,0.0196,0.0223,0.0165,0.0156,0.0167,0.0136,0.0123,0.0193,0.0145,0.0201,0.0235,0.0212,0.0216,0.0219,0.0216,0.0217,0.0204,0.0204,0.0204,0,0.0091,0.0128,0.0147,0.0193,0.0212,0.021,0.0248,0.0262,0.0265,0.0259,0.024,0.021,0.0195,0.0185,0.0206,0.0211,0.0198,0.0192,0.0223,0.0224,0.0226,0.0221,0.0222,0.0209,0.0208,0.0208,0.0207,0,0.0159,0.019,0.0226,0.0266,0.0304,0.035,0.0364,0.0389,0.0375,0.036,0.0356,0.0325,0.0292,0.0296,0.0275,0.0277,0.0266,0.0238,0.0188,0.0236,0.0229,0.0229,0.0215,0.0213,0.0212,0.0211,0,0,0.0195,0.0252,0.0263,0.0273,0.0344,0.0374,0.0427,0.0452,0.0453,0.0454,0.0435,0.0427,0.0386,0.0368,0.033,0.0312,0.0328,0.0288,0.0285,0.0276,0.0296,0.0272,0.0268,0.0306,0.0306,0.0306,0.0298,0,0.0231,0.0298,0.033,0.0385,0.0414,0.0445,0.0481,0.051,0.0518,0.0512,0.0471,0.0451,0.042,0.0398,0.038,0.0332,0.0325,0.0333,0.0257,0.0255,0.0219,0.0266,0.0277,0.0269,0.0297,0.0297,0.0297,0,0.0278,0.0314,0.0368,0.0406,0.0424,0.0459,0.0506,0.0535,0.0549,0.0551,0.0529,0.0498,0.0467,0.0432,0.0374,0.0383,0.0352,0.0316,0.0314,0.0253,0.0228,0.022,0.0265,0.0214,0.0295,0.0295,0.0295,0,0.0267,0.0334,0.0366,0.0389,0.0448,0.0469,0.0494,0.0535,0.0545,0.056,0.056,0.0527,0.0491,0.0449,0.039,0.0387,0.0324,0.0307,0.0257,0.0256,0.0227,0.0223,0.0199,0.0271,0.0271,0.0271,0.0271,0,0.0284,0.0307,0.0353,0.0372,0.0405,0.045,0.0478,0.0509,0.0528,0.0539,0.0553,0.0537,0.0492,0.0454,0.0407,0.033,0.0339,0.0265,0.0248,0.0262,0.0261,0.0181,0.0139,0.0271,0.0271,0.0271,0.0271,0,0.0265,0.0294,0.033,0.0384,0.0397,0.0418,0.0457,0.0477,0.0503,0.0516,0.052,0.0534,0.05,0.0454,0.0388,0.034,0.0249,0.0248,0.0278,0.0263,0.0165,0.0128,0.0073,0.0071,0.0199,0.0198,0.0198,0,0.0255,0.0274,0.033,0.0348,0.0368,0.0398,0.0424,0.0458,0.0484,0.0506,0.0511,0.0495,0.0505,0.0411,0.0329,0.026,0.0218,0.0217,0.0203,0.0163,0.0109,0.0103,0.0106,0.0218,0.0218,0.0217,0.0217,0,0.0243,0.0266,0.0295,0.0332,0.0358,0.04,0.0432,0.0454,0.05,0.0531,0.0564,0.057,0.0476,0.0432,0.0329,0.0258,0.019,0.0207,0.0153,0.0109,0.0111,0.0101,0.0234,0.0214,0.0215,0.0215,0.0215,0.0215,0.023,0.0247,0.0284,0.0322,0.0359,0.0421,0.0482,0.0529,0.0592,0.069,0.0634,0.0714,0.0595,0.0458,0.0307,0.0123,0.014,0.0104,0.0063,0.0062,0.0052,0.0184,0.0144,0.0144,0.0144,0.0144,0.0144,0,0.021,0.0237,0.0271,0.0334,0.0395,0.0419,0.0513,0.0611,0.0732,0.0807,0.0865,0.0898,0.073,0.053,0.027,0.0075,0.0003,-0.0031,-0.0031,-0.002,0.0088,0.008,0.0038,0.0038,0.0039,0.0039,0.0039,0.0039,0.0197,0.0222,0.0252,0.0356,0.0421,0.0553,0.0639,0.0787,0.0901,0.109,0.1193,0.1224,0.1149,0.0551,0.0171,0.0022,-0.0091,-0.0177,-0.0202,-0.0135,-0.0125,-0.0115,-0.013,-0.0216,-0.0216,-0.0257,-0.0258,-0.0259]}],[{"header":{"parameterUnit":"m.s-1","parameterCategory":2,"la1":30.2991,"la2":30.254,"lo1":-89.0895,"lo2":-89.0444,"dy":0.0017,"dx":0.0017,"nx":28,"ny":28,"refTime":"2023-04-30T15:00:00:Z","depth":"2","parameterNumber":2,"parameterNumberName":"U-component_of_CURRENTS"},"data":[0,0,0,0,0,0,0,0,0,0,0,0,0,0,0,0,0,0,0,0,0,0,0,0,0,0,0,0,0,0,0,0,0,0,0,0,0,0,0,0,0,0,0,0,0,0,0,0,0,0,0,0,0,0,0,0,0,0,0.2514,0.2519,0,0.2756,0.2757,0.2758,0.2881,0.2883,0.2885,0.2887,0.2893,0.2891,0.2889,0,0,0,0,0,0,0,0,0,0,0,0,0,0.2225,0.2227,0.2514,0.2519,0.2524,0.2756,0.2757,0.2758,0.2881,0.2883,0.2886,0.2888,0.2893,0.2891,0.2889,0,0,0,0,0,0,0,0,0,0,0,0,0,0.2375,0.2228,0.2513,0.263,0.2644,0.2755,0.2757,0.2758,0.288,0.2883,0.2887,0.289,0.2894,0.2891,0.2888,0.2806,0,0,0.288,0.2879,0,0,0,0,0,0,0,0,0.2366,0.2383,0.2608,0.2622,0.2639,0.2812,0.2659,0.277,0.2879,0.2767,0.2888,0.2891,0.2856,0.2856,0.2866,0.2806,0.2806,0.288,0.2878,0.2877,0.2876,0,0,0,0,0,0,0,0.2356,0.2374,0.2587,0.2613,0.2633,0.2695,0.2716,0.268,0.2768,0.2777,0.2792,0.2854,0.286,0.2868,0.2867,0.2806,0.288,0.2877,0.2875,0.2874,0.2802,0.2802,0,0,0,0,0,0,0.2364,0.2363,0.258,0.2596,0.2533,0.2699,0.2722,0.2734,0.2774,0.2792,0.2851,0.2859,0.2872,0.287,0.2867,0.2799,0.2877,0.2874,0.2872,0.2803,0.2802,0.2802,0,0,0,0,0,0,0.2356,0.2379,0.257,0.2507,0.2538,0.2702,0.2714,0.2738,0.2782,0.2837,0.2846,0.2878,0.2874,0.2871,0.2838,0.28,0.2873,0.287,0.2803,0.2803,0.2802,0.2645,0,0,0,0,0,0,0.2345,0.2372,0.2379,0.2505,0.2543,0.2622,0.2714,0.2741,0.2824,0.2837,0.2861,0.2865,0.2876,0.2842,0.2835,0.2797,0.2868,0.2803,0.2803,0.2802,0.2651,0.264,0.263,0,0,0,0,0,0.2333,0.2319,0.2376,0.2405,0.2546,0.2623,0.2642,0.2758,0.2822,0.2811,0.2838,0.2866,0.2838,0.2837,0.283,0.279,0.2803,0.2803,0.2802,0.2655,0.2642,0.263,0,0,0,0,0,0,0.2187,0.2337,0.2401,0.2432,0.2524,0.2652,0.2664,0.2758,0.2774,0.2771,0.2829,0.2829,0.2804,0.282,0.282,0.2781,0.2837,0.2835,0.2729,0.2716,0.2706,0.2652,0.2866,0,0,0,0,0,0.2164,0.2181,0.2342,0.2352,0.2396,0.253,0.2583,0.2654,0.2709,0.2724,0.2754,0.2779,0.2788,0.2771,0.2778,0.2714,0.2705,0.2703,0.2692,0.2683,0.264,0.2628,0.261,0.2801,0.2801,0.2801,0,0,0.2118,0.2196,0.2213,0.2323,0.2391,0.2428,0.256,0.2608,0.2632,0.2709,0.2697,0.2735,0.2772,0.2727,0.2716,0.2731,0.2617,0.2682,0.2673,0.2635,0.2625,0.2606,0.2589,0.28,0.28,0.28,0,0,0.2007,0.2086,0.2069,0.2136,0.2252,0.2336,0.2357,0.2476,0.2517,0.2518,0.26,0.2597,0.261,0.2616,0.2628,0.2557,0.2578,0.2597,0.2465,0.2453,0.2436,0.2421,0.2336,0.2315,0.2572,0.2572,0.2572,0,0.1952,0.1965,0.2072,0.2074,0.2134,0.2292,0.2293,0.2344,0.2436,0.2445,0.249,0.2523,0.2546,0.251,0.2493,0.2523,0.2511,0.2499,0.2433,0.2418,0.2405,0.2323,0.2301,0.2564,0.2565,0.2566,0.2566,0,0.185,0.1869,0.1852,0.1916,0.1967,0.1988,0.2109,0.2139,0.222,0.2279,0.2275,0.2304,0.2326,0.2348,0.2385,0.2322,0.2338,0.2431,0.2447,0.2375,0.2294,0.2274,0.2553,0.2556,0.2558,0.256,0,0,0.1717,0.1779,0.1773,0.1786,0.1898,0.1923,0.1943,0.2013,0.2025,0.2071,0.2063,0.207,0.211,0.2127,0.2187,0.2157,0.2037,0.2235,0.2238,0.2116,0.1953,0.1991,0.1973,0.2133,0.213,0.2127,0.1914,0,0.1622,0.159,0.1651,0.1625,0.164,0.1765,0.1771,0.1833,0.1902,0.1915,0.1952,0.1963,0.2026,0.2034,0.2005,0.2059,0.1986,0.2081,0.2071,0.2068,0.2084,0.1953,0.1836,0.1642,0.1895,0.1892,0.1889,0,0.1521,0.1524,0.1486,0.1515,0.1527,0.1523,0.1584,0.1609,0.1669,0.1716,0.1724,0.1793,0.1745,0.1842,0.1783,0.185,0.1859,0.1884,0.188,0.1952,0.207,0.177,0.1596,0.1856,0.1859,0.1862,0.1864,0,0.1413,0.1406,0.1375,0.1392,0.1449,0.1432,0.1462,0.1527,0.1558,0.1592,0.1614,0.1594,0.1607,0.16,0.1653,0.1716,0.1596,0.1704,0.1716,0.1717,0.1628,0.1628,0.1627,0.1628,0.1628,0.1629,0.1629,0,0.1335,0.1302,0.1311,0.1307,0.1261,0.1311,0.1285,0.134,0.1385,0.1423,0.1489,0.1529,0.1563,0.1545,0.1563,0.1547,0.1515,0.1626,0.1658,0.1571,0.1568,0.1798,0.1821,0.1621,0.1622,0.1624,0.1625,0,0.1252,0.1265,0.1226,0.1227,0.1221,0.1185,0.1216,0.1226,0.1267,0.1323,0.1338,0.1436,0.146,0.1454,0.1449,0.1451,0.143,0.144,0.1298,0.1319,0.156,0.1578,0.1383,0.1382,0.1382,0.1381,0.1381,0,0.1219,0.1188,0.1163,0.1155,0.1156,0.1123,0.1142,0.1179,0.1229,0.1311,0.1354,0.1384,0.1489,0.1419,0.1386,0.132,0.1423,0.1193,0.1311,0.148,0.1531,0.155,0.1568,0.1086,0.1083,0.1081,0.1079,0,0.1166,0.1147,0.1135,0.1118,0.1109,0.1112,0.1134,0.1152,0.1241,0.1288,0.1409,0.1474,0.1459,0.139,0.129,0.1262,0.1191,0.1154,0.1319,0.1223,0.12,0.1252,0.1278,0.1059,0.1061,0.1062,0.1063,0.1064,0.113,0.1109,0.1102,0.1091,0.1095,0.1129,0.1135,0.1159,0.1213,0.1252,0.1378,0.1373,0.1362,0.1192,0.1128,0.103,0.1156,0.1093,0.1098,0.1106,0.1168,0.1152,0.1005,0.1007,0.1008,0.101,0.1011,0,0.1091,0.1106,0.1092,0.1093,0.1089,0.1119,0.1174,0.1139,0.117,0.117,0.1211,0.1078,0.1033,0.101,0.0846,0.0843,0.0809,0.0814,0.0764,0.0785,0.0803,0.0849,0.0601,0.06,0.0599,0.0597,0,0,0.108,0.1064,0.1067,0.1078,0.1105,0.1086,0.1117,0.1059,0.1011,0.0928,0.087,0.0892,0.0963,0.0738,0.0727,0.0649,0.0705,0.0611,0.0939,0.09,0.0917,0.0965,0.1061,0,0,0,0,0]},{"header":{"parameterUnit":"m.s-1","parameterCategory":2,"la1":30.2991,"la2":30.254,"lo1":-89.0895,"lo2":-89.0444,"dy":0.0017,"dx":0.0017,"nx":28,"ny":28,"refTime":"2023-04-30T15:00:00:Z","depth":"2","parameterNumber":3,"parameterNumberName":"V-component_of_CURRENTS"},"data":[0,0,0,0,0,0,0,0,0,0,0,0,0,0,0,0,0,0,0,0,0,0,0,0,0,0,0,0,0,0,0,0,0,0,0,0,0,0,0,0,0,0,0,0,0,0,0,0,0,0,0,0,0,0,0,0,0,0,0.0101,0.01,0,0.0042,0.0042,0.0041,-0.0028,-0.003,-0.0031,-0.0033,-0.0077,-0.0077,-0.0076,0,0,0,0,0,0,0,0,0,0,0,0,0,0.0038,0.0041,0.0101,0.01,0.0098,0.0042,0.0042,0.0041,-0.0027,-0.003,-0.0032,-0.0034,-0.0077,-0.0077,-0.0076,0,0,0,0,0,0,0,0,0,0,0,0,0,0.0039,0.0042,0.0102,0.0051,0.0046,0.0042,0.0042,0.0041,-0.0027,-0.003,-0.0032,-0.0035,-0.0077,-0.0077,-0.0076,-0.0019,0,0,-0.0074,-0.0074,0,0,0,0,0,0,0,0,0.0039,0.0042,0.006,0.0055,0.0048,0.0005,0.0002,0.0019,-0.0026,0.0009,-0.0033,-0.0036,-0.0051,-0.0053,-0.0047,-0.0021,-0.0023,-0.0074,-0.0073,-0.0073,-0.0073,0,0,0,0,0,0,0,0.0039,0.0043,0.0086,0.0059,0.0051,-0.0009,-0.001,0.0005,0.0001,0.0006,-0.0001,-0.002,-0.0054,-0.0048,-0.0049,-0.0023,-0.0074,-0.0073,-0.0073,-0.0073,0.001,0.0011,0,0,0,0,0,0,0.0041,0.0045,0.0087,0.0083,0.0028,-0.0006,-0.0007,0.0028,0.0,-0.0009,-0.0017,-0.0023,-0.0048,-0.005,-0.0051,-0.0007,-0.0073,-0.0072,-0.0072,0.0008,0.001,0.0012,0,0,0,0,0,0,0.0041,0.0047,0.009,0.0052,0.0052,-0.0002,0.0037,0.0028,0.0025,-0.0019,-0.0027,-0.0013,-0.005,-0.0052,-0.0034,-0.0009,-0.0072,-0.0071,0.0006,0.0008,0.0011,0.0095,0,0,0,0,0,0,0.004,0.0049,0.0059,0.0055,0.0054,0.0107,0.0038,0.0028,0.0015,0.0007,-0.0017,-0.0024,-0.0052,-0.0034,-0.0033,-0.0009,-0.0071,0.0003,0.0007,0.001,0.009,0.01,0.0109,0,0,0,0,0,0.0039,0.008,0.0062,0.0064,0.0078,0.0109,0.0106,0.0059,0.0017,0.0044,0.0013,-0.0024,-0.0014,-0.0032,-0.0031,-0.0006,0.0002,0.0006,0.001,0.0086,0.0098,0.0109,0,0,0,0,0,0,0.0066,0.0075,0.0056,0.0099,0.0105,0.0094,0.01,0.0071,0.007,0.0062,0.0009,0.0003,0.0025,0.0008,-0.0011,0.0027,-0.0015,-0.001,0.0042,0.0054,0.0063,0.0046,-0.007,0,0,0,0,0,0.0075,0.0106,0.0108,0.0143,0.0151,0.0128,0.0124,0.0112,0.0107,0.0102,0.0075,0.0054,0.0048,0.0048,0.0047,0.0082,0.0049,0.0095,0.0105,0.0113,0.0101,0.0077,0.0082,0.0025,0.0025,0.0025,0,0,0.0088,0.0099,0.0111,0.0147,0.0148,0.0177,0.0124,0.0153,0.0164,0.0102,0.0113,0.0093,0.0066,0.0093,0.0101,0.0078,0.0121,0.0118,0.0125,0.0108,0.0081,0.0087,0.0091,0.0027,0.0027,0.0027,0,0,0.0134,0.0156,0.0188,0.0208,0.022,0.0222,0.0234,0.0239,0.023,0.0254,0.0198,0.0188,0.0195,0.0165,0.0153,0.0219,0.0173,0.0227,0.0261,0.0239,0.0243,0.0246,0.0243,0.0244,0.023,0.023,0.0231,0,0.0138,0.0186,0.0202,0.0241,0.0248,0.0246,0.0283,0.0295,0.0297,0.029,0.0272,0.0238,0.0222,0.0212,0.0234,0.0237,0.0224,0.0219,0.0249,0.0251,0.0252,0.0248,0.0249,0.0235,0.0234,0.0234,0.0234,0,0.0205,0.0233,0.0267,0.031,0.0338,0.0381,0.0397,0.0419,0.0404,0.039,0.0384,0.0352,0.0318,0.0322,0.0301,0.0302,0.0292,0.0265,0.0216,0.0263,0.0257,0.0256,0.0241,0.024,0.0238,0.0237,0,0,0.0239,0.0292,0.0302,0.031,0.0376,0.0405,0.0457,0.0481,0.0481,0.0481,0.0462,0.0453,0.0412,0.0393,0.0356,0.0338,0.0354,0.0314,0.0311,0.0304,0.0324,0.0301,0.0298,0.0334,0.0333,0.0333,0.0327,0,0.0273,0.0331,0.0363,0.0416,0.0444,0.0474,0.0509,0.0538,0.0545,0.0539,0.0498,0.0477,0.0446,0.0424,0.0405,0.0358,0.0352,0.0359,0.0285,0.0283,0.0249,0.0295,0.0322,0.0316,0.0326,0.0325,0.0325,0,0.0317,0.0347,0.0399,0.0435,0.0453,0.0487,0.0532,0.0561,0.0575,0.0577,0.0555,0.0524,0.0493,0.0458,0.04,0.0409,0.0379,0.0344,0.0342,0.0281,0.0257,0.0265,0.0313,0.0323,0.0323,0.0323,0.0323,0,0.0303,0.0365,0.0395,0.0417,0.0475,0.0495,0.052,0.056,0.0571,0.0586,0.0586,0.0554,0.0517,0.0476,0.0418,0.0415,0.0353,0.0336,0.0287,0.0286,0.027,0.0268,0.0301,0.0301,0.0301,0.0301,0.0301,0,0.0315,0.0336,0.0381,0.0398,0.0431,0.0476,0.0503,0.0533,0.0553,0.0566,0.0579,0.0564,0.0519,0.0482,0.0435,0.036,0.0368,0.0295,0.0278,0.0305,0.0306,0.027,0.0266,0.0301,0.0301,0.0301,0.0301,0,0.0294,0.0322,0.0356,0.0408,0.0421,0.0442,0.0482,0.0502,0.0528,0.0543,0.0547,0.0561,0.0528,0.0483,0.0417,0.037,0.0308,0.0279,0.0325,0.0313,0.0257,0.0259,0.0233,0.0232,0.0231,0.0231,0.023,0,0.0282,0.03,0.0356,0.0373,0.0393,0.0422,0.0449,0.0484,0.0511,0.0534,0.054,0.0524,0.0537,0.0445,0.0378,0.0314,0.0284,0.0267,0.0255,0.0262,0.0249,0.0251,0.0253,0.0288,0.0288,0.0288,0.0288,0,0.0269,0.0292,0.0321,0.0358,0.0384,0.0427,0.046,0.0482,0.0529,0.0564,0.0597,0.0606,0.0525,0.0485,0.0387,0.0328,0.0283,0.0262,0.0256,0.0292,0.031,0.0298,0.0299,0.0287,0.0287,0.0287,0.0287,0.0287,0.0256,0.0273,0.031,0.0348,0.0386,0.045,0.051,0.0572,0.064,0.0747,0.0677,0.0728,0.0606,0.053,0.0391,0.0262,0.0276,0.0237,0.0239,0.024,0.0238,0.0253,0.0221,0.0221,0.0221,0.022,0.022,0,0.0246,0.0264,0.0299,0.0361,0.0435,0.0448,0.0542,0.0653,0.0795,0.0849,0.0914,0.0815,0.0721,0.0562,0.0385,0.0258,0.0254,0.0197,0.0232,0.0234,0.0236,0.0234,0.0216,0.0215,0.0214,0.0214,0,0,0.0237,0.0268,0.0298,0.0409,0.0464,0.0608,0.0695,0.0858,0.0958,0.1084,0.1103,0.1071,0.0822,0.0686,0.0493,0.0366,0.0333,0.0333,0.0359,0.0429,0.0432,0.0285,0.0288,0,0,0,0,0]}],[{"header":{"parameterUnit":"m.s-1","parameterCategory":2,"la1":30.2991,"la2":30.254,"lo1":-89.0895,"lo2":-89.0444,"dy":0.0017,"dx":0.0017,"nx":28,"ny":28,"refTime":"2023-04-30T15:00:00:Z","depth":"4","parameterNumber":2,"parameterNumberName":"U-component_of_CURRENTS"},"data":[0,0,0,0,0,0,0,0,0,0,0,0,0,0,0,0,0,0,0,0,0,0,0,0,0,0,0,0,0,0,0,0,0,0,0,0,0,0,0,0,0,0,0,0,0,0,0,0,0,0,0,0,0,0,0,0,0,0,-0.0692,-0.0697,0,-0.0919,-0.092,-0.092,-0.0906,-0.0905,-0.0904,-0.0904,-0.0476,-0.0466,-0.0455,0,0,0,0,0,0,0,0,0,0,0,0,0,-0.0305,-0.0309,-0.0691,-0.0697,-0.0703,-0.0919,-0.092,-0.092,-0.0906,-0.0905,-0.0904,-0.0904,-0.048,-0.0467,-0.0454,0,0,0,0,0,0,0,0,0,0,0,0,0,-0.0468,-0.031,-0.069,-0.0744,-0.0753,-0.0919,-0.092,-0.092,-0.0906,-0.0905,-0.0904,-0.0903,-0.0484,-0.0468,-0.0452,-0.037,0,0,-0.0403,-0.0396,0,0,0,0,0,0,0,0,-0.0458,-0.0478,-0.073,-0.0741,-0.0752,-0.0909,-0.0629,-0.0714,-0.0906,-0.0816,-0.0904,-0.0903,-0.058,-0.0556,-0.0568,-0.035,-0.0332,-0.0401,-0.0391,-0.0384,-0.038,0,0,0,0,0,0,0,-0.0447,-0.0469,-0.0751,-0.0737,-0.075,-0.078,-0.0797,-0.0645,-0.0665,-0.0824,-0.0831,-0.0904,-0.0577,-0.0584,-0.0556,-0.0325,-0.0402,-0.0387,-0.0377,-0.0371,0.0036,0.0037,0,0,0,0,0,0,-0.0478,-0.0459,-0.0745,-0.0761,-0.0634,-0.0789,-0.0808,-0.0835,-0.0681,-0.0671,-0.0905,-0.0903,-0.0612,-0.0576,-0.054,-0.0217,-0.0385,-0.0369,-0.036,0.0035,0.0036,0.0037,0,0,0,0,0,0,-0.0467,-0.0499,-0.0736,-0.0641,-0.0677,-0.0799,-0.0828,-0.0841,-0.0804,-0.0756,-0.0726,-0.0855,-0.061,-0.0563,-0.0294,-0.0207,-0.0362,-0.0347,0.0033,0.0035,0.0036,0.0295,0,0,0,0,0,0,-0.0454,-0.0492,-0.0437,-0.0642,-0.0685,-0.0829,-0.0833,-0.0847,-0.0869,-0.0865,-0.0702,-0.0667,-0.0606,-0.0318,-0.0277,-0.0188,-0.0334,0.0032,0.0034,0.0036,0.0285,0.0305,0.0323,0,0,0,0,0,-0.0438,-0.0385,-0.0431,-0.0464,-0.0631,-0.0834,-0.0853,-0.0918,-0.0866,-0.0867,-0.0672,-0.0669,-0.0284,-0.0297,-0.0252,-0.0156,0.0031,0.0033,0.0036,0.0277,0.0301,0.0322,0,0,0,0,0,0,-0.0201,-0.039,-0.0441,-0.0448,-0.0636,-0.0842,-0.0827,-0.0881,-0.0745,-0.0647,-0.0562,-0.051,-0.027,-0.0262,-0.0283,-0.0062,-0.0164,-0.0152,0.0003,0.0027,0.0045,-0.0137,-0.0321,0,0,0,0,0,-0.0133,-0.014,-0.0379,-0.0403,-0.0465,-0.0625,-0.0678,-0.0739,-0.0718,-0.0662,-0.0508,-0.0364,-0.0244,-0.0136,-0.0023,0.0169,0.0052,0.0214,0.0233,0.025,0.0119,0.0016,0.0013,0.0045,0.0045,0.0045,0,0,-0.007,-0.0173,-0.0181,-0.0353,-0.0464,-0.0604,-0.0643,-0.0717,-0.0803,-0.0614,-0.0458,-0.0243,-0.0179,0.0026,0.0121,0.0068,0.0216,0.0253,0.0269,0.0124,0.0018,0.0015,0.0011,0.0046,0.0046,0.0046,0,0,0.0016,-0.0023,0.0,-0.0158,-0.0335,-0.0491,-0.0509,-0.0611,-0.0599,-0.0473,-0.0344,-0.0102,0.011,0.0171,0.0208,0.0372,0.0325,0.0453,0.043,0.0341,0.0336,0.0329,0.0342,0.0334,0.0457,0.0458,0.0458,0,0.0112,0.007,-0.0041,-0.0116,-0.0262,-0.0447,-0.0541,-0.062,-0.0589,-0.0555,-0.0406,-0.008,0.0097,0.0188,0.0316,0.0409,0.0397,0.0382,0.0365,0.0355,0.0344,0.0355,0.0343,0.047,0.0469,0.0468,0.0467,0,0.0132,0.011,0.0087,-0.0096,-0.0251,-0.0364,-0.0587,-0.0593,-0.0545,-0.0581,-0.0371,-0.0084,0.0087,0.0216,0.037,0.0416,0.046,0.0423,0.0316,0.0356,0.0369,0.0352,0.0489,0.0484,0.048,0.0477,0,0,0.0272,0.0147,0.013,0.0086,-0.0243,-0.0362,-0.0551,-0.0756,-0.08,-0.0643,-0.0618,-0.0285,-0.0038,0.0012,0.0273,0.0258,0.037,0.0381,0.0371,0.0404,0.028,0.0355,0.0343,0.0388,0.0383,0.0379,0.0383,0,0.0302,0.0243,0.0116,-0.0027,-0.0108,-0.0377,-0.0516,-0.0699,-0.0785,-0.0757,-0.0609,-0.0405,-0.0172,0.0114,0.0124,0.0382,0.0308,0.0374,0.0213,0.0206,0.0274,0.0314,0.0361,0.0369,0.0364,0.0361,0.0359,0,0.031,0.0278,0.0192,0.007,0.0021,-0.0103,-0.0407,-0.0525,-0.0711,-0.0698,-0.0632,-0.0492,-0.027,-0.0151,0.0029,0.0116,0.0162,0.022,0.022,0.0125,0.0238,0.027,0.0325,0.0327,0.033,0.0332,0.0334,0,0.0396,0.0316,0.0275,0.0183,-0.001,-0.0058,-0.016,-0.0438,-0.0497,-0.063,-0.0568,-0.0493,-0.0219,-0.0248,0.0035,0.0072,0.0091,0.0119,0.01,0.0113,-0.0069,-0.0065,-0.0099,-0.0099,-0.0099,-0.0099,-0.0099,0,0.0383,0.0373,0.0376,0.0323,0.0318,0.017,0.0089,-0.0078,-0.0204,-0.0246,-0.035,-0.0299,-0.0228,-0.0165,-0.0073,0.0065,-0.0,0.0037,0.0071,0.007,0.0088,-0.007,-0.0066,-0.0099,-0.0099,-0.0099,-0.0099,0,0.0406,0.0392,0.0384,0.0344,0.0342,0.0354,0.0264,0.019,0.0119,0.0037,0.0065,-0.0037,0.007,0.0031,0.0037,0.0049,0.0051,-0.0001,0.0068,0.0116,0.0151,0.0167,0.001,0.0011,0.0013,0.0014,0.0015,0,0.04,0.0409,0.0419,0.0412,0.0403,0.042,0.0373,0.0309,0.0207,0.0201,0.0199,0.0244,0.0167,0.0244,0.0179,0.0135,0.007,0.0043,-0.0012,0.0089,0.0139,0.0154,0.0168,0.0017,0.0017,0.0017,0.0018,0,0.0385,0.0412,0.0394,0.04,0.0401,0.0377,0.0371,0.0364,0.03,0.031,0.0305,0.0275,0.0306,0.0263,0.0195,0.0152,0.0095,0.0056,0.0051,-0.0,0.0096,0.0148,0.016,0.0022,0.0022,0.0021,0.0021,0,0.0376,0.0366,0.0357,0.0343,0.0343,0.0312,0.0326,0.0307,0.0298,0.0326,0.0341,0.0341,0.033,0.0269,0.0248,0.0205,0.017,0.0113,0.0104,0.0099,0.0117,0.0253,0.0206,0,0,0,0,0,0.0346,0.0299,0.0284,0.0254,0.0257,0.0263,0.0259,0.027,0.031,0.0306,0.0324,0.0319,0.0297,0.028,0.0244,0.024,0.0139,0.0192,0.0063,0.0048,0.0043,0.0053,0,0,0,0,0,0,0.0307,0.0281,0.0252,0.0178,0.0163,0.015,0.0163,0.0198,0.0189,0.0255,0.0238,0.03,0.0263,0.0328,0.0244,0.0237,0.0143,0.0202,0.02,0.0051,0.0046,0.0042,0.0051,0,0,0,0,0]},{"header":{"parameterUnit":"m.s-1","parameterCategory":2,"la1":30.2991,"la2":30.254,"lo1":-89.0895,"lo2":-89.0444,"dy":0.0017,"dx":0.0017,"nx":28,"ny":28,"refTime":"2023-04-30T15:00:00:Z","depth":"4","parameterNumber":3,"parameterNumberName":"V-component_of_CURRENTS"},"data":[0,0,0,0,0,0,0,0,0,0,0,0,0,0,0,0,0,0,0,0,0,0,0,0,0,0,0,0,0,0,0,0,0,0,0,0,0,0,0,0,0,0,0,0,0,0,0,0,0,0,0,0,0,0,0,0,0,0,0.051,0.0511,0,0.0616,0.0617,0.0618,0.0814,0.0818,0.0822,0.0826,0.0729,0.0723,0.0717,0,0,0,0,0,0,0,0,0,0,0,0,0,0.039,0.0391,0.051,0.0512,0.0513,0.0616,0.0617,0.0618,0.0813,0.0818,0.0823,0.0828,0.0731,0.0724,0.0716,0,0,0,0,0,0,0,0,0,0,0,0,0,0.046,0.0392,0.051,0.0625,0.0637,0.0616,0.0617,0.0619,0.0812,0.0818,0.0825,0.083,0.0734,0.0724,0.0715,0.0534,0,0,0.0686,0.0682,0,0,0,0,0,0,0,0,0.0456,0.0464,0.0607,0.0617,0.063,0.0711,0.054,0.0581,0.0811,0.0742,0.0826,0.0833,0.0701,0.0695,0.07,0.0529,0.0525,0.0685,0.0679,0.0675,0.0672,0,0,0,0,0,0,0,0.0451,0.046,0.0549,0.0608,0.0622,0.0642,0.066,0.0549,0.068,0.0749,0.0764,0.0779,0.0707,0.0709,0.0698,0.0524,0.0685,0.0677,0.0671,0.0667,0.04,0.0399,0,0,0,0,0,0,0.0442,0.0456,0.0546,0.0552,0.056,0.064,0.0659,0.0676,0.0686,0.0696,0.0774,0.0788,0.0722,0.0709,0.0695,0.0674,0.0675,0.0666,0.0661,0.0401,0.04,0.0398,0,0,0,0,0,0,0.0439,0.0449,0.0541,0.0509,0.0523,0.0637,0.0654,0.0675,0.0762,0.0708,0.0715,0.0849,0.0726,0.0709,0.0642,0.0664,0.0662,0.0653,0.0403,0.0401,0.0399,0.0504,0,0,0,0,0,0,0.0435,0.0447,0.0451,0.0508,0.0525,0.0561,0.0649,0.0673,0.0758,0.078,0.077,0.0765,0.073,0.0656,0.0632,0.0651,0.0646,0.0405,0.0402,0.04,0.0503,0.0506,0.0509,0,0,0,0,0,0.043,0.0429,0.045,0.0462,0.0529,0.0561,0.057,0.0669,0.0756,0.0775,0.0771,0.077,0.0625,0.0645,0.0618,0.0635,0.0406,0.0403,0.04,0.0501,0.0506,0.0509,0,0,0,0,0,0,0.0407,0.0449,0.0476,0.0496,0.0534,0.0597,0.0618,0.0694,0.0711,0.0756,0.0722,0.071,0.0673,0.0609,0.0634,0.0548,0.0524,0.0515,0.0611,0.0614,0.0617,0.0618,0.0638,0,0,0,0,0,0.0386,0.0389,0.044,0.0457,0.0473,0.0551,0.0582,0.0668,0.0692,0.0719,0.0708,0.0677,0.0616,0.0589,0.0524,0.0439,0.0424,0.0438,0.0441,0.0445,0.0423,0.0447,0.0453,0.0388,0.0388,0.0388,0,0,0.0391,0.0406,0.0418,0.0449,0.0486,0.0495,0.0588,0.0666,0.0704,0.0683,0.0711,0.0683,0.0596,0.0541,0.0518,0.0504,0.0452,0.0441,0.0445,0.0421,0.0445,0.0452,0.0459,0.0386,0.0386,0.0387,0,0,0.0383,0.0404,0.0402,0.0418,0.048,0.0505,0.0541,0.0627,0.0699,0.0699,0.0707,0.0692,0.0599,0.0557,0.0514,0.0473,0.0475,0.0468,0.0478,0.0504,0.0511,0.0517,0.0512,0.0516,0.0466,0.0466,0.0466,0,0.0384,0.0389,0.0409,0.0405,0.0408,0.0511,0.0515,0.0573,0.0642,0.0672,0.0727,0.0652,0.0605,0.0522,0.0529,0.0487,0.0494,0.0485,0.0516,0.0521,0.0525,0.0518,0.0522,0.0471,0.047,0.047,0.0469,0,0.0375,0.0379,0.038,0.0381,0.0371,0.0413,0.0463,0.0521,0.0616,0.0677,0.0692,0.0646,0.0609,0.0598,0.0548,0.0536,0.0529,0.0534,0.0525,0.054,0.0529,0.0532,0.0477,0.0476,0.0474,0.0473,0,0,0.0373,0.0375,0.0373,0.038,0.0378,0.0394,0.0407,0.0451,0.0502,0.0597,0.0628,0.0582,0.0635,0.0584,0.0551,0.0558,0.0608,0.0563,0.0563,0.059,0.0658,0.0575,0.0569,0.0648,0.0649,0.0649,0.0642,0,0.0367,0.0361,0.0332,0.0326,0.0332,0.0356,0.0343,0.0403,0.046,0.0515,0.057,0.0583,0.061,0.0611,0.0631,0.0591,0.0617,0.0607,0.0607,0.0605,0.0559,0.0569,0.0651,0.0644,0.0644,0.0645,0.0645,0,0.0352,0.0354,0.0338,0.0327,0.0325,0.0316,0.0313,0.0338,0.0404,0.046,0.0512,0.0559,0.0567,0.0613,0.0624,0.0628,0.0655,0.0647,0.0648,0.0528,0.0526,0.0617,0.0648,0.0648,0.0648,0.0648,0.0647,0,0.0356,0.035,0.034,0.0338,0.0329,0.0329,0.0334,0.0346,0.0382,0.0445,0.048,0.0519,0.0549,0.0599,0.0606,0.0642,0.0608,0.0661,0.0611,0.0605,0.0641,0.0634,0.0701,0.0701,0.0701,0.0701,0.0701,0,0.0348,0.0352,0.037,0.038,0.0386,0.036,0.0369,0.0385,0.0403,0.045,0.0488,0.0511,0.0561,0.0559,0.059,0.0576,0.0618,0.0597,0.0598,0.0681,0.0679,0.0643,0.0636,0.07,0.07,0.0701,0.0701,0,0.0348,0.0359,0.0372,0.0384,0.0393,0.041,0.0417,0.0446,0.0444,0.0489,0.0526,0.0525,0.053,0.0518,0.0533,0.0537,0.0532,0.0523,0.056,0.0565,0.0527,0.0525,0.0504,0.0501,0.0498,0.0496,0.0495,0,0.0344,0.0358,0.0389,0.0412,0.0425,0.0458,0.0485,0.0491,0.0522,0.0513,0.0555,0.0529,0.0542,0.0466,0.0457,0.0449,0.0465,0.0445,0.054,0.0503,0.0507,0.0509,0.0511,0.0491,0.049,0.0489,0.0489,0,0.0347,0.0365,0.0385,0.0442,0.0484,0.0527,0.0579,0.0593,0.0617,0.0601,0.0591,0.0555,0.0508,0.047,0.0402,0.0426,0.0444,0.0421,0.0429,0.0518,0.0487,0.0494,0.0498,0.048,0.0481,0.0482,0.0482,0,0.0352,0.0376,0.0423,0.0471,0.0528,0.0599,0.061,0.0654,0.067,0.0656,0.065,0.0587,0.0543,0.0457,0.0423,0.0379,0.0433,0.0454,0.0462,0.0471,0.0452,0.0408,0.0367,0,0,0,0,0,0.0358,0.0405,0.0453,0.052,0.0579,0.0624,0.0677,0.0691,0.07,0.0704,0.0674,0.0642,0.0547,0.0494,0.045,0.0418,0.0431,0.0364,0.0462,0.0431,0.0441,0.0416,0,0,0,0,0,0,0.0371,0.0421,0.0461,0.0562,0.0616,0.0702,0.0739,0.0745,0.0745,0.0721,0.0672,0.0627,0.054,0.0577,0.0447,0.043,0.0485,0.0314,0.0313,0.0426,0.0435,0.0443,0.042,0,0,0,0,0]}]]